This demonstration page uses our WeatherBlox Daily Observations layout. Learn more.

Left ArrowRight Arrow

Hourly Observations for November 2, 2022

Temp ( °F °C ) Dew Point ( °F °C ) Humidity (%) Winds ( mph kmh ) Pressure ( in mb ) Visibility ( mi km ) Precip ( " mm )
12:53 am 00:53 Clear 60 15.6 48 8.9 64 64 S 13 20 30.06 1018 10 16 0.00 0.00
1:53 am 01:53 Clear 59 15 48 8.9 67 67 S 14 22 30.06 1018 10 16 0.00 0.00
2:53 am 02:53 Clear 58 14.4 48 8.9 70 70 S 12 19 30.06 1018 10 16 0.00 0.00
3:53 am 03:53 Clear 57 13.9 49 9.4 74 74 S 13 20 30.06 1018 10 16 0.00 0.00
4:53 am 04:53 Clear 57 13.9 49 9.4 74 74 S 13 20 30.06 1018 10 16 0.00 0.00
5:53 am 05:53 Mostly Clear 57 13.9 50 10 77 77 S 16 26 30.06 1018 10 16 0.00 0.00
6:53 am 06:53 Mostly Clear 56 13.3 50 10 80 80 S 14 22 30.07 1018 10 16 0.00 0.00
7:53 am 07:53 Mostly Clear 56 13.3 51 10.6 84 84 S 16 26 30.09 1019 10 16 0.00 0.00
8:53 am 08:53 Partly Cloudy 58 14.4 51 10.6 78 78 S 16 26 30.09 1019 10 16 0.00 0.00
9:53 am 09:53 Partly Cloudy 63 17.2 52 11.1 67 67 S 21 33 30.09 1019 10 16 0.00 0.00
10:53 am 10:53 Partly Cloudy 67 19.4 52 11 58 58 S 23 37 30.08 1019 10 16 0.00 0.00
11:53 am 11:53 Partly Cloudy 71 21.7 53 11.7 53 53 S 23 37 30.06 1018 10 16 0.00 0.00
12:53 pm 12:53 Mostly Sunny 74 23.3 52 11.1 46 46 S 28 44 30.03 1017 10 16 0.00 0.00
1:53 pm 13:53 Partly Cloudy 75 23.9 53 11.7 46 46 S 25 41 30.00 1016 10 16 0.00 0.00
2:53 pm 14:53 Partly Cloudy 76 24.4 53 11.7 45 45 S 29 46 29.96 1015 10 16 0.00 0.00
3:53 pm 15:53 Partly Cloudy 76 24.4 53 11.7 45 45 S 30 48 29.95 1014 10 16 0.00 0.00
4:53 pm 16:53 Partly Cloudy 74 23.3 53 11.7 48 48 S 30 48 29.94 1014 10 16 0.00 0.00
5:53 pm 17:53 Mostly Sunny 70 21.1 54 12.2 57 57 S 24 39 29.95 1014 10 16 0.00 0.00
6:53 pm 18:53 Mostly Clear 65 18.3 54 12.2 68 68 S 16 26 29.97 1015 10 16 0.00 0.00
7:53 pm 19:53 Clear 62 16.7 54 12.2 75 75 S 20 31 29.99 1016 10 16 0.00 0.00
8:53 pm 20:53 Partly Cloudy 59 15 53 11.7 81 81 SSE 15 24 29.99 1016 10 16 0.00 0.00
9:53 pm 21:53 Partly Cloudy 58 14.4 53 11.7 84 84 SSE 16 26 29.99 1016 10 16 0.00 0.00
10:53 pm 22:53 Partly Cloudy 57 13.9 53 11.7 87 87 SSE 14 22 29.98 1015 10 16 0.00 0.00
11:53 pm 23:53 Partly Cloudy 59 15 54 12.2 83 83 S 20 31 29.96 1015 10 16 0.00 0.00

Powered by AerisWeather